Regional Weather Roundup
Issued by NWS Newport/Morehead, NC

Current Version | Previous Version | Graphics & Text | Print | Product List | Glossary Off
Versions: 1 2 3 4 5 6 7 8 9 10 11 12 13 14 15 16 17 18 19 20 21 22 23 24 25 26 27 28 29 30 31 32 33 34 35 36 37 38 39 40 41 42 43 44 45 46 47 48 49 50

000
ASUS42 KMHX 282012
RWRMHX
WEATHER ROUNDUP FOR EASTERN NORTH CAROLINA
NATIONAL WEATHER SERVICE NEWPORT/MOREHEAD CITY NC
400 PM EDT SAT MAR 28 2015

NOTE: "FAIR" INDICATES FEW OR NO CLOUDS BELOW 12,000 FEET
WITH NO SIGNIFICANT WEATHER AND/OR OBSTRUCTIONS TO VISIBILITY

NCZ015>017-031-032-045>047-102-103-282100-
NORTH COAST

CITY           SKY/WX    TMP DP  RH WIND       PRES   REMARKS
EDENTON        CLOUDY    41  29  61 NW10G17   30.03R
ELIZABETH CITY CLOUDY    39  29  67 NW14      30.03R
KITTY HAWK     MOCLDY    43  29  58 W10       30.00R
MANTEO         PTSUNNY   43  29  57 NW13G20   30.02R

$$

NCZ045>047-081-094-103-104-282100-
CENTRAL COAST

CITY           SKY/WX    TMP DP  RH WIND       PRES   REMARKS
FRISCO         PTSUNNY   45  34  65 NW12G18   30.01R
SWANQUARTER      N/A     46 N/A N/A N3G13     29.97S

$$

NCZ095-097-098-100-101-282100-
SOUTHERN COAST

CITY           SKY/WX    TMP DP  RH WIND       PRES   REMARKS
BEAUFORT       PTSUNNY   50  33  52 NW16G36   30.00S
CEDAR ISLAND     N/A     46 N/A N/A NW14G20   30.03S
JACKSONVILLE   MOSUNNY   50  25  37 NW16G26   30.01R
PINEY ISLAND   MOCLDY   N/A N/A N/A N12       30.01R
WILMINGTON     MOSUNNY   51  29  42 W15       30.01F


$$

NCZ011>013-027>030-043-044-078>080-089-090>093-098-282100-
COASTAL PLAIN

CITY           SKY/WX    TMP DP  RH WIND       PRES   REMARKS
AHOSKIE        PTSUNNY   40  23  50 N8        30.04S
CLINTON        MOSUNNY   49  26  40 NW6G16    30.03S
ELIZABETHTOWN  MOSUNNY   51  23  33 NW14      30.02F
GOLDSBORO      MOSUNNY   48  27  45 NW14G22   30.01S
GREENVILLE     PTSUNNY   45  21  39 W8G20     30.04S
HAVELOCK       PTSUNNY   50  27  40 W15       30.02R
KENANSVILLE    MOSUNNY   48  24  39 NW12G20   30.03S
KINSTON        MOSUNNY   46  21  36 W9G20     30.03S
NEW BERN       PTSUNNY   47  29  49 NW12      30.02R
RICHLANDS      CLOUDY    48  25  40 W5        30.02S
ROCKY MOUNT    SUNNY     45  17  32 NW9       30.04R
WASHINGTON     MOSUNNY   45  27  49 NW9G16    30.02S
WHITEVILLE     PTSUNNY   53  26  35 W6G17     30.02F

$$

AMZ130-135-150-152-154-156-158-170-250-252-270-ANZ085-086-088-633-658-670-282100-
MARINE OBSERVATIONS

STATION/POSITION TIME  TEMP    WIND        PRES    WAVE   SWELL
                       AIR SEA DIR/SP/G            HT/PER HT/PER
                 (UTC) (F)     (DEG/KT/KT) (MB)    (FT/S) (FT/S)
CHESAPEAKE LIGHT 1900   37     310/ 20/ 22 1016.4
64 E VA BEACH    1950   39 57  320/ 19/ 23 1014.9    8/ 8   3/11
DUCK             1900   40 42  270/ 10/ 12 1014.9
2 E DUCK         1911      42                N/A     6/ 8   2/11
10 NE DUCK       NOT AVBL
OREGON INLET     1900   39 45  290/ 11/ 16 1016.2
HATTERAS CG      1900   44 53  320/ 14/ 16 1016.1
CAPE LOOKOUT     2000   50     270/ 13/ 17 1015.7
BEAUFORT LAB     1900   48 55  320/  6/ 12 1014.8
27 SE WRIGHTSVLE 1900   47 65  290/ 10/ 12 1017.7
5 SE WRIGHTSVLE  1900   50 56  300/ 16/ 17 1016.3
225 S CAPE HAT   1950   61 69  300/ 19/ 23 1015.1   12/10   8/10
41 SE CHARLESTON 1950   53 68  280/ 16/ 19 1016.8    4/ 7   2/10

$$


USA.gov is the U.S. government's official web portal to all federal, state and local government web resources and services.